Location: Kapuskasing
(49.3803°N, 82.4001°W)
Time: 19:14:06
(UTC-05:00)

ISS - Visible Passes

Search period start: 18 November 2019 00:00
Search period end: 28 November 2019 00:00
Orbit: 412 x 421 km, 51.6° (Epoch: 19 November)

Date Brightness Start Highest point End Pass type
(mag) Time Alt. Az. Time Alt. Az. Time Alt. Az.
21 Nov -0.7 19:27:44 10° SSW 19:27:48 10° SSW 19:27:48 10° SSW visible
22 Nov -1.8 18:39:52 10° SSW 18:41:38 19° SSE 18:41:38 19° SSE visible
23 Nov -1.6 17:52:24 10° S 17:54:18 14° SE 17:55:23 13° ESE visible
23 Nov -1.2 19:27:12 10° WSW 19:28:18 19° SW 19:28:18 19° SW visible
24 Nov -3.1 18:38:58 10° SW 18:41:58 43° SSE 18:41:58 43° SSE visible
25 Nov -2.6 17:50:52 10° SSW 17:53:51 30° SE 17:55:33 19° E visible
25 Nov -1.3 19:27:02 10° WSW 19:28:28 23° W 19:28:28 23° W visible
26 Nov -3.9 18:38:35 10° WSW 18:41:57 83° SSE 18:42:00 82° SE visible
27 Nov -3.6 17:50:13 10° SW 17:53:31 61° SSE 17:55:30 22° E visible
27 Nov -1.3 19:26:59 10° W 19:28:23 22° W 19:28:23 22° W visible
